Mesa, AZ

7:23 PM MST on May 26, 2015 (GMT -0700)
Beeline | | Change Station
CLOSE
Current Station
Personal Weather Station
Location: Mesa, AZ
Elevation: 1235 ft
Nearby Weather Stations

Elev 1235 ft 33.45 °N, 111.84 °W | Updated 10 seconds ago

Mostly Cloudy
Mostly Cloudy
89.0 °F
Feels Like 85 °F
N
2.0
Wind Variable Wind from WNW
Gusts 2.0 mph

Today
High -- | Low -- °F
--% Chance of Precip.
Yesterday
High -- | Low -- °F
Precip. -- in
5:20 AM 7:28 PM
Waxing Gibbous, 63% visible
Pressure 29.83 in
Visibility 40.0 miles
Clouds Mostly Cloudy 20000 ft
Mostly Cloudy 25000 ft
Heat Index 85 °F
Dew Point 40 °F
Humidity 18%
Rainfall 0.00 in
Snow Depth Not available.
UV 0 out of 12
Pollen 4.70 out of 12
Air Quality Not available.
Flu Activity Local Activity
METAR KFFZ 270147Z 27006KT 40SM BKN200 BKN250 31/03 A2983 RMK WIND ESTIMATED

More Conditions Fewer Conditions

Pressure 29.83 in
Visibility 40.0 miles
Clouds Mostly Cloudy 20000 ft
Mostly Cloudy 25000 ft
Heat Index 85 °F
Dew Point 40 °F
Humidity 18%
Rainfall 0.00 in
Snow Depth Not available.
UV 0 out of 12
Pollen 4.70 out of 12
Air Quality Not available.
Flu Activity Local Activity
METAR KFFZ 270147Z 27006KT 40SM BKN200 BKN250 31/03 A2983 RMK WIND ESTIMATED

More Conditions Fewer Conditions

10-Day Weather Forecast

Almanac

Astronomy

May. 26, 2015 Rise Set
Actual Time
Civil Twilight
Nautical Twilight
Astronomical Twilight
Moon
Length of Visible Light
Length of Day
Tomorrow will be .
, % of the Moon is Illuminated

Today's Extremes

State Highs State Lows

Community

WunderPhotos

Upload Photos

1,824,562 photos uploaded!

WunderBlogs® & News

Nearby

Air Quality

  Air Quality AQ Index Pollutant
Not available.

Snow Depth

Station Depth Elevation

Earthquake Activity

City Distance Mag. Time & Date
Minimum magnitude displayed is 2.5.

Coastal Water Temperatures

Place Temperature

Stations

Nearby Weather Stations

Station Location Temp. Windchill Dew Point Humidity Wind Precip. Elev Updated Type